• In Netherlands
  • List of Countries
  • For 7 days
  • Water Temperature
  • Satellite Maps
  • Weather Map
  • Weather Widgets
  • user-avatar
    Login

    Hourly Weather Natitingou

    Today, 24 May, Wednesday

    Time Temperature Precipitation Wind Pressure Humidity
    00:00 +30°C° 0 mm 2 mps 717 mmHg 55%
    01:00 +30°C° 0 mm 2 mps 716 mmHg 58%
    02:00 +29°C° 0 mm 2 mps 716 mmHg 60%
    03:00 +29°C° 0 mm 2 mps 716 mmHg 63%
    04:00 +28°C° 0 mm 2 mps 716 mmHg 66%
    05:00 +28°C° 0 mm 2 mps 716 mmHg 69%
    06:00 +27°C° 0 mm 2 mps 716 mmHg 72%
    07:00 +29°C° 0 mm 2 mps 717 mmHg 66%
    08:00 +31°C° 0 mm 3 mps 717 mmHg 61%
    09:00 +33°C° 0 mm 3 mps 718 mmHg 55%
    10:00 +35°C° 0 mm 3 mps 718 mmHg 50%
    11:00 +37°C° 0 mm 2 mps 718 mmHg 44%
    12:00 +38°C° 0 mm 2 mps 717 mmHg 39%
    13:00 +38°C° 0.3 mm 2 mps 717 mmHg 38%
    14:00 +38°C° 0.3 mm 2 mps 716 mmHg 37%
    15:00 +38°C° 0.3 mm 2 mps 716 mmHg 37%
    16:00 +37°C° 0.6 mm 2 mps 716 mmHg 41%
    17:00 +36°C° 0.6 mm 2 mps 716 mmHg 45%
    18:00 +34°C° 0.6 mm 2 mps 716 mmHg 50%
    19:00 +31°C° 8.2 mm 2 mps 716 mmHg 62%
    20:00 +29°C° 8.2 mm 2 mps 716 mmHg 74%
    21:00 +27°C° 8.2 mm 2 mps 716 mmHg 86%
    22:00 +27°C° 4.5 mm 2 mps 717 mmHg 87%
    23:00 +27°C° 4.5 mm 2 mps 717 mmHg 87%

    Tomorrow, 25 May, Thursday

    Time Temperature Precipitation Wind Pressure Humidity
    00:00 +26°C° 4.5 mm 2 mps 717 mmHg 88%
    01:00 +26°C° 1 mm 2 mps 717 mmHg 87%
    02:00 +26°C° 1 mm 1 mps 717 mmHg 86%
    03:00 +26°C° 1 mm 1 mps 716 mmHg 86%
    04:00 +26°C° 0 mm 1 mps 717 mmHg 87%
    05:00 +26°C° 0 mm 2 mps 717 mmHg 88%
    06:00 +26°C° 0 mm 2 mps 717 mmHg 88%
    07:00 +27°C° 0 mm 2 mps 717 mmHg 82%
    08:00 +28°C° 0 mm 3 mps 718 mmHg 76%
    09:00 +30°C° 0 mm 3 mps 718 mmHg 69%
    10:00 +31°C° 0 mm 3 mps 718 mmHg 63%
    11:00 +34°C° 0 mm 3 mps 718 mmHg 56%
    12:00 +35°C° 0 mm 3 mps 718 mmHg 50%
    13:00 +36°C° 0 mm 2 mps 717 mmHg 47%
    14:00 +36°C° 0 mm 2 mps 716 mmHg 45%
    15:00 +37°C° 0 mm 2 mps 715 mmHg 42%
    16:00 +34°C° 0.1 mm 1 mps 716 mmHg 48%
    17:00 +33°C° 0.1 mm 1 mps 716 mmHg 55%
    18:00 +32°C° 0.1 mm 1 mps 716 mmHg 61%
    19:00 +31°C° 0 mm 1 mps 716 mmHg 62%
    20:00 +30°C° 0 mm 2 mps 717 mmHg 63%
    21:00 +30°C° 0 mm 2 mps 718 mmHg 64%
    22:00 +29°C° 0.5 mm 2 mps 718 mmHg 69%
    23:00 +28°C° 0.5 mm 2 mps 718 mmHg 73%

    Day after tomorrow, 26 May, Friday

    Time Temperature Precipitation Wind Pressure Humidity
    00:00 +28°C° 0.5 mm 1 mps 718 mmHg 77%
    01:00 +27°C° 0.1 mm 2 mps 717 mmHg 79%
    02:00 +27°C° 0.1 mm 2 mps 717 mmHg 81%
    03:00 +26°C° 0.1 mm 3 mps 717 mmHg 83%
    04:00 +26°C° 0 mm 2 mps 717 mmHg 84%
    05:00 +26°C° 0 mm 2 mps 717 mmHg 85%
    06:00 +26°C° 0 mm 2 mps 718 mmHg 86%
    07:00 +26°C° 0 mm 2 mps 718 mmHg 81%
    08:00 +27°C° 0 mm 2 mps 719 mmHg 77%
    09:00 +28°C° 0 mm 2 mps 720 mmHg 72%
    10:00 +29°C° 0.2 mm 2 mps 719 mmHg 68%
    11:00 +30°C° 0.2 mm 2 mps 719 mmHg 65%
    12:00 +31°C° 0.2 mm 2 mps 719 mmHg 61%
    13:00 +30°C° 1.3 mm 2 mps 718 mmHg 66%
    14:00 +30°C° 1.3 mm 2 mps 718 mmHg 71%
    15:00 +29°C° 1.3 mm 2 mps 717 mmHg 76%
    16:00 +28°C° 0.1 mm 1 mps 717 mmHg 79%
    17:00 +27°C° 0.1 mm 1 mps 717 mmHg 82%
    18:00 +27°C° 0.1 mm 1 mps 717 mmHg 85%
    19:00 +26°C° 0 mm 1 mps 718 mmHg 86%
    20:00 +26°C° 0 mm 2 mps 718 mmHg 87%
    21:00 +26°C° 0 mm 2 mps 718 mmHg 88%
    22:00 +25°C° 0 mm 1 mps 718 mmHg 89%
    23:00 +25°C° 0 mm 1 mps 718 mmHg 89%

    27 May, Saturday

    Time Temperature Precipitation Wind Pressure Humidity
    00:00 +25°C° 0 mm 1 mps 718 mmHg 90%
    01:00 +25°C° 0 mm 1 mps 718 mmHg 91%
    02:00 +24°C° 0 mm 1 mps 718 mmHg 92%
    03:00 +24°C° 0 mm 1 mps 718 mmHg 93%
    04:00 +24°C° 0 mm 1 mps 718 mmHg 92%
    05:00 +24°C° 0 mm 1 mps 718 mmHg 92%
    06:00 +24°C° 0 mm 1 mps 719 mmHg 92%
    07:00 +26°C° 0 mm 1 mps 719 mmHg 81%
    08:00 +28°C° 0 mm 1 mps 720 mmHg 71%
    09:00 +30°C° 0 mm 1 mps 720 mmHg 61%
    10:00 +32°C° 0 mm 1 mps 720 mmHg 54%
    11:00 +33°C° 0 mm 1 mps 720 mmHg 47%
    12:00 +35°C° 0 mm 1 mps 720 mmHg 40%
    13:00 +35°C° 0 mm 1 mps 719 mmHg 39%
    14:00 +36°C° 0 mm 1 mps 718 mmHg 38%
    15:00 +36°C° 0 mm 1 mps 717 mmHg 37%
    16:00 +34°C° 0 mm 1 mps 717 mmHg 43%
    17:00 +33°C° 0 mm 1 mps 717 mmHg 49%
    18:00 +30°C° 0 mm 0 mps 717 mmHg 55%
    19:00 +29°C° 0 mm 0 mps 717 mmHg 55%
    20:00 +30°C° 0 mm 1 mps 718 mmHg 56%
    21:00 +30°C° 0 mm 1 mps 718 mmHg 56%
    22:00 +29°C° 0 mm 1 mps 718 mmHg 58%
    23:00 +29°C° 0 mm 1 mps 718 mmHg 59%

    28 May, Sunday

    Time Temperature Precipitation Wind Pressure Humidity
    00:00 +28°C° 0 mm 1 mps 718 mmHg 60%
    01:00 +28°C° 0 mm 1 mps 718 mmHg 63%
    02:00 +28°C° 0 mm 1 mps 718 mmHg 65%
    03:00 +27°C° 0 mm 1 mps 718 mmHg 67%
    04:00 +27°C° 0 mm 1 mps 718 mmHg 68%
    05:00 +27°C° 0 mm 1 mps 718 mmHg 69%
    06:00 +27°C° 0 mm 1 mps 719 mmHg 71%
    07:00 +28°C° 0 mm 1 mps 719 mmHg 66%
    08:00 +30°C° 0 mm 2 mps 720 mmHg 62%
    09:00 +31°C° 0 mm 2 mps 720 mmHg 57%
    10:00 +34°C° 0 mm 2 mps 719 mmHg 51%
    11:00 +36°C° 0 mm 2 mps 719 mmHg 45%
    12:00 +36°C° 0 mm 1 mps 719 mmHg 39%
    13:00 +37°C° 0 mm 1 mps 718 mmHg 38%
    14:00 +37°C° 0 mm 1 mps 717 mmHg 37%
    15:00 +37°C° 0 mm 1 mps 716 mmHg 36%
    16:00 +36°C° 0 mm 1 mps 717 mmHg 40%
    17:00 +35°C° 0 mm 1 mps 717 mmHg 43%
    18:00 +33°C° 0 mm 1 mps 717 mmHg 47%
    19:00 +32°C° 0.4 mm 2 mps 717 mmHg 52%
    20:00 +31°C° 0.4 mm 2 mps 718 mmHg 57%
    21:00 +30°C° 0.4 mm 2 mps 718 mmHg 61%
    22:00 +30°C° 0.5 mm 2 mps 718 mmHg 65%
    23:00 +29°C° 0.5 mm 2 mps 718 mmHg 69%

    29 May, Monday

    Time Temperature Precipitation Wind Pressure Humidity
    00:00 +28°C° 0.5 mm 2 mps 717 mmHg 73%
    01:00 +28°C° 0 mm 2 mps 717 mmHg 75%
    02:00 +28°C° 0 mm 2 mps 717 mmHg 76%
    03:00 +27°C° 0 mm 2 mps 717 mmHg 77%
    04:00 +27°C° 0 mm 2 mps 717 mmHg 77%
    05:00 +27°C° 0 mm 2 mps 717 mmHg 78%
    06:00 +27°C° 0 mm 2 mps 718 mmHg 78%
    07:00 +28°C° 0 mm 2 mps 718 mmHg 73%
    08:00 +29°C° 0 mm 3 mps 718 mmHg 68%
    09:00 +31°C° 0 mm 3 mps 719 mmHg 62%
    10:00 +33°C° 0 mm 3 mps 719 mmHg 58%
    11:00 +34°C° 0 mm 3 mps 718 mmHg 54%
    12:00 +36°C° 0 mm 3 mps 718 mmHg 49%
    13:00 +35°C° 0.5 mm 3 mps 717 mmHg 50%
    14:00 +35°C° 0.5 mm 2 mps 717 mmHg 51%
    15:00 +35°C° 0.5 mm 2 mps 716 mmHg 51%
    16:00 +34°C° 0.1 mm 2 mps 716 mmHg 56%
    17:00 +32°C° 0.1 mm 2 mps 717 mmHg 60%
    18:00 +31°C° 0.1 mm 2 mps 717 mmHg 65%
    19:00 +30°C° 0 mm 2 mps 717 mmHg 67%
    20:00 +30°C° 0 mm 3 mps 717 mmHg 68%
    21:00 +29°C° 0 mm 3 mps 718 mmHg 70%
    22:00 +28°C° 0.3 mm 3 mps 717 mmHg 73%
    23:00 +28°C° 0.3 mm 3 mps 717 mmHg 76%
    Show more